When you browse on this site, cookies collect data to enhance your experience and personalize the content and advertising you see.
Visit our Privacy Policy to learn more. By continuing to use the site, you agree to this use of cookies and data.
  • en Suisse
  • Liste des pays
  • À 7 jours
  • Température de l'eau
  • Carte météo
  • Widgets météo
  • user-avatar
    Se connecter

    Météo par heure à Xiulin

    Ce jour, 29 Mai, Vendredi

    Heure Température Précipitation Vent Pression Humidité
    00:00 +26°C° 0 mm 2 m/s 753 mmHg 64%
    01:00 +26°C° 0 mm 2 m/s 753 mmHg 65%
    02:00 +25°C° 0.1 mm 3 m/s 753 mmHg 71%
    03:00 +25°C° 0.1 mm 3 m/s 753 mmHg 76%
    04:00 +24°C° 0.1 mm 3 m/s 753 mmHg 82%
    05:00 +24°C° 0.4 mm 3 m/s 753 mmHg 84%
    06:00 +23°C° 0.4 mm 2 m/s 753 mmHg 87%
    07:00 +23°C° 0.4 mm 2 m/s 754 mmHg 90%
    08:00 +24°C° 0.1 mm 3 m/s 754 mmHg 86%
    09:00 +25°C° 0.1 mm 3 m/s 754 mmHg 82%
    10:00 +26°C° 0.1 mm 4 m/s 754 mmHg 78%
    11:00 +26°C° 0.2 mm 5 m/s 753 mmHg 76%
    12:00 +27°C° 0.2 mm 5 m/s 753 mmHg 74%
    13:00 +27°C° 0.2 mm 5 m/s 752 mmHg 71%
    14:00 +27°C° 0 mm 5 m/s 752 mmHg 72%
    15:00 +27°C° 0 mm 5 m/s 752 mmHg 72%
    16:00 +27°C° 0 mm 5 m/s 751 mmHg 73%
    17:00 +26°C° 0 mm 5 m/s 752 mmHg 77%
    18:00 +25°C° 0 mm 4 m/s 752 mmHg 82%
    19:00 +23°C° 0 mm 4 m/s 752 mmHg 87%
    20:00 +23°C° 0 mm 4 m/s 753 mmHg 89%
    21:00 +22°C° 0 mm 3 m/s 753 mmHg 91%
    22:00 +22°C° 0 mm 3 m/s 753 mmHg 92%
    23:00 +22°C° 0 mm 3 m/s 753 mmHg 93%

    Demain, 30 Mai, Samedi

    Heure Température Précipitation Vent Pression Humidité
    00:00 +21°C° 0 mm 2 m/s 753 mmHg 94%
    01:00 +21°C° 0 mm 2 m/s 753 mmHg 95%
    02:00 +21°C° 0 mm 2 m/s 753 mmHg 95%
    03:00 +21°C° 0 mm 2 m/s 753 mmHg 96%
    04:00 +20°C° 0 mm 2 m/s 753 mmHg 97%
    05:00 +21°C° 0 mm 2 m/s 754 mmHg 92%
    06:00 +23°C° 0 mm 2 m/s 754 mmHg 88%
    07:00 +25°C° 0 mm 2 m/s 754 mmHg 84%
    08:00 +26°C° 0 mm 2 m/s 754 mmHg 78%
    09:00 +28°C° 0 mm 2 m/s 755 mmHg 72%
    10:00 +29°C° 0 mm 2 m/s 755 mmHg 66%
    11:00 +30°C° 0 mm 2 m/s 754 mmHg 62%
    12:00 +31°C° 0 mm 2 m/s 753 mmHg 58%
    13:00 +34°C° 0 mm 2 m/s 753 mmHg 53%
    14:00 +34°C° 0 mm 2 m/s 752 mmHg 53%
    15:00 +34°C° 0 mm 2 m/s 752 mmHg 52%
    16:00 +34°C° 0 mm 2 m/s 751 mmHg 51%
    17:00 +32°C° 0 mm 2 m/s 752 mmHg 56%
    18:00 +30°C° 0 mm 2 m/s 752 mmHg 62%
    19:00 +29°C° 0 mm 2 m/s 752 mmHg 67%
    20:00 +28°C° 0 mm 2 m/s 753 mmHg 69%
    21:00 +27°C° 0 mm 2 m/s 753 mmHg 71%
    22:00 +27°C° 0 mm 2 m/s 754 mmHg 73%
    23:00 +26°C° 0 mm 2 m/s 754 mmHg 75%

    Après-demain, 31 Mai, Dimanche

    Heure Température Précipitation Vent Pression Humidité
    00:00 +26°C° 0 mm 1 m/s 753 mmHg 76%
    01:00 +26°C° 0 mm 1 m/s 753 mmHg 78%
    02:00 +25°C° 0 mm 1 m/s 753 mmHg 79%
    03:00 +25°C° 0 mm 1 m/s 753 mmHg 80%
    04:00 +23°C° 0 mm 0 m/s 753 mmHg 81%
    05:00 +26°C° 0 mm 1 m/s 754 mmHg 79%
    06:00 +27°C° 0 mm 1 m/s 754 mmHg 77%
    07:00 +28°C° 0 mm 1 m/s 754 mmHg 74%
    08:00 +29°C° 0 mm 1 m/s 754 mmHg 71%
    09:00 +30°C° 0 mm 2 m/s 754 mmHg 67%
    10:00 +32°C° 0 mm 2 m/s 754 mmHg 63%
    11:00 +34°C° 0 mm 2 m/s 753 mmHg 59%
    12:00 +34°C° 0 mm 2 m/s 753 mmHg 55%
    13:00 +35°C° 0 mm 2 m/s 752 mmHg 50%
    14:00 +33°C° 0 mm 3 m/s 752 mmHg 58%
    15:00 +31°C° 0 mm 3 m/s 752 mmHg 66%
    16:00 +29°C° 0 mm 4 m/s 751 mmHg 74%
    17:00 +29°C° 0 mm 4 m/s 752 mmHg 77%
    18:00 +28°C° 0 mm 3 m/s 752 mmHg 80%
    19:00 +27°C° 0 mm 2 m/s 752 mmHg 83%
    20:00 +26°C° 0 mm 2 m/s 753 mmHg 84%
    21:00 +26°C° 0 mm 2 m/s 753 mmHg 85%
    22:00 +26°C° 0 mm 2 m/s 753 mmHg 86%
    23:00 +25°C° 0 mm 2 m/s 753 mmHg 87%

    1 Juin, Lundi

    Heure Température Précipitation Vent Pression Humidité
    00:00 +25°C° 0 mm 2 m/s 753 mmHg 88%
    01:00 +25°C° 0 mm 1 m/s 753 mmHg 89%
    02:00 +24°C° 0 mm 1 m/s 753 mmHg 90%
    03:00 +24°C° 0 mm 2 m/s 753 mmHg 91%
    04:00 +24°C° 0 mm 2 m/s 753 mmHg 91%
    05:00 +25°C° 0 mm 2 m/s 753 mmHg 88%
    06:00 +26°C° 0 mm 2 m/s 753 mmHg 85%
    07:00 +27°C° 0 mm 3 m/s 753 mmHg 82%
    08:00 +29°C° 0 mm 3 m/s 753 mmHg 75%
    09:00 +30°C° 0 mm 3 m/s 753 mmHg 68%
    10:00 +33°C° 0 mm 3 m/s 753 mmHg 61%
    11:00 +32°C° 0 mm 2 m/s 753 mmHg 57%
    12:00 +34°C° 0 mm 2 m/s 752 mmHg 53%
    13:00 +35°C° 0 mm 2 m/s 751 mmHg 50%
    14:00 +35°C° 0 mm 2 m/s 751 mmHg 49%
    15:00 +35°C° 0 mm 2 m/s 750 mmHg 49%
    16:00 +36°C° 0 mm 2 m/s 750 mmHg 48%
    17:00 +34°C° 0 mm 2 m/s 750 mmHg 55%
    18:00 +31°C° 0 mm 2 m/s 750 mmHg 62%
    19:00 +30°C° 0 mm 2 m/s 750 mmHg 68%
    20:00 +29°C° 0 mm 2 m/s 751 mmHg 73%
    21:00 +29°C° 0 mm 2 m/s 751 mmHg 78%
    22:00 +28°C° 0 mm 2 m/s 751 mmHg 82%
    23:00 +28°C° 0 mm 2 m/s 751 mmHg 85%

    2 Juin, Mardi

    Heure Température Précipitation Vent Pression Humidité
    00:00 +27°C° 0 mm 2 m/s 750 mmHg 87%
    01:00 +27°C° 0 mm 2 m/s 750 mmHg 89%
    02:00 +27°C° 0 mm 2 m/s 750 mmHg 90%
    03:00 +27°C° 0 mm 2 m/s 750 mmHg 91%
    04:00 +26°C° 0 mm 2 m/s 750 mmHg 91%
    05:00 +27°C° 0 mm 2 m/s 750 mmHg 89%
    06:00 +28°C° 0 mm 3 m/s 750 mmHg 87%
    07:00 +28°C° 0 mm 3 m/s 750 mmHg 84%
    08:00 +29°C° 0 mm 3 m/s 750 mmHg 83%
    09:00 +29°C° 0 mm 3 m/s 751 mmHg 81%
    10:00 +29°C° 0 mm 3 m/s 751 mmHg 80%
    11:00 +29°C° 0 mm 3 m/s 750 mmHg 81%
    12:00 +29°C° 0 mm 3 m/s 750 mmHg 82%
    13:00 +28°C° 0 mm 3 m/s 750 mmHg 84%
    14:00 +29°C° 0 mm 3 m/s 750 mmHg 82%
    15:00 +29°C° 0 mm 3 m/s 749 mmHg 80%
    16:00 +29°C° 0 mm 3 m/s 749 mmHg 78%
    17:00 +28°C° 0 mm 3 m/s 749 mmHg 80%
    18:00 +28°C° 0 mm 3 m/s 749 mmHg 82%
    19:00 +27°C° 0 mm 3 m/s 750 mmHg 84%
    20:00 +27°C° 0 mm 2 m/s 750 mmHg 86%
    21:00 +26°C° 0 mm 2 m/s 750 mmHg 87%
    22:00 +26°C° 0 mm 1 m/s 751 mmHg 89%
    23:00 +25°C° 0 mm 1 m/s 750 mmHg 89%

    3 Juin, Mercredi

    Heure Température Précipitation Vent Pression Humidité
    00:00 +25°C° 0 mm 1 m/s 750 mmHg 90%
    01:00 +25°C° 0 mm 1 m/s 750 mmHg 90%
    02:00 +25°C° 0 mm 1 m/s 750 mmHg 90%
    03:00 +25°C° 0 mm 1 m/s 750 mmHg 89%
    04:00 +23°C° 0 mm 0 m/s 750 mmHg 89%
    05:00 +26°C° 0 mm 1 m/s 750 mmHg 85%
    06:00 +27°C° 0 mm 1 m/s 750 mmHg 81%
    07:00 +27°C° 0 mm 1 m/s 750 mmHg 76%
    08:00 +29°C° 0 mm 1 m/s 750 mmHg 69%
    09:00 +31°C° 0 mm 2 m/s 750 mmHg 62%
    10:00 +32°C° 0 mm 2 m/s 750 mmHg 54%
    11:00 +34°C° 0 mm 2 m/s 750 mmHg 50%
    12:00 +35°C° 0 mm 2 m/s 749 mmHg 47%
    13:00 +36°C° 0 mm 2 m/s 749 mmHg 43%
    14:00 +36°C° 0 mm 3 m/s 748 mmHg 44%
    15:00 +35°C° 0 mm 3 m/s 748 mmHg 45%
    16:00 +35°C° 0 mm 3 m/s 747 mmHg 46%
    17:00 +33°C° 0 mm 3 m/s 748 mmHg 55%
    18:00 +31°C° 0 mm 3 m/s 748 mmHg 64%
    19:00 +29°C° 0 mm 3 m/s 749 mmHg 73%
    20:00 +28°C° 0 mm 3 m/s 749 mmHg 78%
    21:00 +28°C° 0 mm 3 m/s 750 mmHg 82%
    22:00 +27°C° 0 mm 3 m/s 750 mmHg 87%
    23:00 +27°C° 0 mm 2 m/s 750 mmHg 89%
    Voir plus